Location: Foulognes
(49.1413°N, 0.8183°W)
Time: 18:16:07
(UTC+00:00)

STARLINK-49 - Pass Details

Date: 21 October 2019
Orbit: 548 x 551 km, 53.0° (Epoch: 14 November)

Event Time Altitude Azimuth Distance (km) Brightness Sun altitude
Rises 17:52:48 0° 271° (W) 2,716 9.4 -8.9°
Reaches altitude 10° 17:55:05 10° 277° (W) 1,823 7.8 -9.3°
Maximum altitude 17:59:07 50° 354° (N) 707 4.2 -10.0°
Enters shadow 18:02:34 14° 68° (ENE) 1,599 5.4 -10.5°
